SES-11 (ECHOSTAR 105)

Last updated on Sun Apr 12 2026 00:02:54 GMT+0000 (Coordinated Universal Time)

1 42967U 17063A 26101.49989064 -.00000088 00000+0 00000+0 0 9999 2 42967 0.0448 42.5752 0002762 359.2981 232.8584 1.00270782 31053
UTC large
Height (km)
Speed (km/s)
/
Latitude / Longitude
Inclination (degrees)
Orbital Period (minutes)
Azimuth
Elevation
Range (km)
Doppler Factor

Next 0 passes for location: London (51.5072 / 0.1276)

Sorry there are no passes over London.
SES-11 (ECHOSTAR 105)